AVA72 SKBO-KLAX

Flight info

Callsign AVA72
Flight time 3h 9m
Altitude 40000
Route TOBKI4R VASIL DCT PULOX UM549 TBG UM419 AROVI/N0484F410 UM419 ANSON/N0485F400 UM206 BTO UA754 BZE UM208 DASMO UM206 SESNO UJ15E MTY UT11 RUDLO UJ47 CUU UT41 ELURO J92 ALMON J104 PKE DCT MDLER DCT HLYWD HLYWD1
Aircraft B788/H-SDE1E2E3FGHIJ2J3J4J5M1RWXY/LB1D1

Departure

Time 2026-04-26 17:16
Airport El Dorado International Airport (SKBO)

Arrival

Time 2026-04-26 20:25
Airport Los Angeles International Airport (KLAX)
Time Latitude Longitude Altitude Speed Heading
2026-04-26 16:36 4.69988 -74.14117 8371 ft 0 kts 217°
2026-04-26 16:56 4.69992 -74.14114 8371 ft 2 kts 216°
2026-04-26 16:57 4.70005 -74.14104 8372 ft 2 kts 221°
2026-04-26 16:57 4.70016 -74.14092 8372 ft 2 kts 229°
2026-04-26 16:57 4.70031 -74.14063 8372 ft 2 kts 258°
2026-04-26 16:58 4.70030 -74.14047 8372 ft 2 kts 282°
2026-04-26 16:58 4.70027 -74.14037 8372 ft 2 kts 295°
2026-04-26 16:58 4.70020 -74.14027 8372 ft 0 kts 304°
2026-04-26 17:02 4.70021 -74.14027 8371 ft 1 kts 304°
2026-04-26 17:03 4.70026 -74.14035 8371 ft 2 kts 305°
2026-04-26 17:03 4.70046 -74.14061 8362 ft 9 kts 308°
2026-04-26 17:03 4.70087 -74.14114 8372 ft 9 kts 308°
2026-04-26 17:03 4.70125 -74.14165 8372 ft 11 kts 307°
2026-04-26 17:04 4.70179 -74.14214 8372 ft 5 kts 353°
2026-04-26 17:04 4.70223 -74.14206 8372 ft 10 kts
2026-04-26 17:04 4.70271 -74.14238 8372 ft 13 kts 307°
2026-04-26 17:04 4.70329 -74.14315 8372 ft 13 kts 308°
2026-04-26 17:05 4.70380 -74.14381 8372 ft 11 kts 308°
2026-04-26 17:05 4.70422 -74.14436 8372 ft 9 kts 308°
2026-04-26 17:05 4.70440 -74.14478 8372 ft 3 kts 255°
2026-04-26 17:05 4.70397 -74.14527 8373 ft 19 kts 219°
2026-04-26 17:06 4.70248 -74.14638 8372 ft 29 kts 217°
2026-04-26 17:06 4.70086 -74.14762 8372 ft 30 kts 217°
2026-04-26 17:06 4.69936 -74.14874 8372 ft 20 kts 216°
2026-04-26 17:06 4.69855 -74.14948 8372 ft 6 kts 261°
2026-04-26 17:07 4.69878 -74.15014 8372 ft 15 kts 307°
2026-04-26 17:07 4.69977 -74.15138 8372 ft 30 kts 307°
2026-04-26 17:07 4.70098 -74.15298 8372 ft 27 kts 308°
2026-04-26 17:07 4.70221 -74.15460 8372 ft 32 kts 307°
2026-04-26 17:08 4.70365 -74.15650 8371 ft 37 kts 307°
2026-04-26 17:08 4.70513 -74.15844 8372 ft 33 kts 307°
2026-04-26 17:08 4.70644 -74.16021 8372 ft 30 kts 307°
2026-04-26 17:08 4.70778 -74.16194 8372 ft 32 kts 307°
2026-04-26 17:09 4.70908 -74.16365 8372 ft 28 kts 307°
2026-04-26 17:09 4.70983 -74.16466 8372 ft 27 kts 306°
2026-04-26 17:09 4.71134 -74.16665 8372 ft 27 kts 307°
2026-04-26 17:09 4.71217 -74.16778 8372 ft 2 kts 284°
2026-04-26 17:10 4.71210 -74.16789 8372 ft 5 kts 217°
2026-04-26 17:10 4.71157 -74.16827 8371 ft 7 kts 217°
2026-04-26 17:10 4.71150 -74.16833 8371 ft 0 kts 217°
2026-04-26 17:13 4.71074 -74.16883 8369 ft 7 kts 187°
2026-04-26 17:14 4.71022 -74.16867 8369 ft 7 kts 143°
2026-04-26 17:14 4.70974 -74.16817 8369 ft 11 kts 126°
2026-04-26 17:14 4.70949 -74.16782 8369 ft 11 kts 127°
2026-04-26 17:15 4.70504 -74.16195 8372 ft 100 kts 128°
2026-04-26 17:15 4.70001 -74.15531 8370 ft 142 kts 127°
2026-04-26 17:15 4.69328 -74.14640 8369 ft 177 kts 127°
2026-04-26 17:16 4.68543 -74.13624 8794 ft 185 kts 125°
2026-04-26 17:16 4.67774 -74.12585 9386 ft 187 kts 126°
2026-04-26 17:16 4.66930 -74.11611 9774 ft 184 kts 148°
2026-04-26 17:16 4.65717 -74.11331 10168 ft 186 kts 190°
2026-04-26 17:17 4.64531 -74.11944 10399 ft 203 kts 227°
2026-04-26 17:17 4.63830 -74.13213 10739 ft 218 kts 257°
2026-04-26 17:17 4.63528 -74.14727 11246 ft 224 kts 257°
2026-04-26 17:17 4.63095 -74.16261 11692 ft 237 kts 252°
2026-04-26 17:18 4.62556 -74.17867 12188 ft 247 kts 251°
2026-04-26 17:18 4.62060 -74.19431 13033 ft 240 kts 252°
2026-04-26 17:18 4.61528 -74.21016 13697 ft 243 kts 250°
2026-04-26 17:18 4.60991 -74.22658 13965 ft 263 kts 259°
2026-04-26 17:19 4.60462 -74.26658 14386 ft 307 kts 261°
2026-04-26 17:19 4.60258 -74.28877 14593 ft 327 kts 266°
2026-04-26 17:19 4.60088 -74.31195 14764 ft 346 kts 266°
2026-04-26 17:20 4.59942 -74.33668 14926 ft 366 kts 267°
2026-04-26 17:20 4.59859 -74.35414 15113 ft 374 kts 267°
2026-04-26 17:20 4.59787 -74.38903 15756 ft 381 kts 277°
2026-04-26 17:20 4.60507 -74.41462 16311 ft 385 kts 296°
2026-04-26 17:21 4.61975 -74.43714 16830 ft 389 kts 307°
2026-04-26 17:21 4.63651 -74.45860 17325 ft 393 kts 308°
2026-04-26 17:21 4.65381 -74.48013 17844 ft 397 kts 308°
2026-04-26 17:21 4.67106 -74.50197 18299 ft 401 kts 308°
2026-04-26 17:22 4.68825 -74.52409 18754 ft 404 kts 307°
2026-04-26 17:22 4.70545 -74.54609 19208 ft 407 kts 308°
2026-04-26 17:22 4.72305 -74.56841 19658 ft 410 kts 308°
2026-04-26 17:22 4.74080 -74.59089 20097 ft 413 kts 309°
2026-04-26 17:23 4.76160 -74.61076 20520 ft 416 kts 323°
2026-04-26 17:23 4.78497 -74.62821 20909 ft 420 kts 324°
2026-04-26 17:23 4.80872 -74.64546 21297 ft 423 kts 324°
2026-04-26 17:23 4.83257 -74.66301 21691 ft 427 kts 323°
2026-04-26 17:24 4.85609 -74.68141 22083 ft 430 kts 321°
2026-04-26 17:24 4.87966 -74.70008 22454 ft 433 kts 323°
2026-04-26 17:24 4.90371 -74.71837 22827 ft 436 kts 323°
2026-04-26 17:24 4.92754 -74.73748 23198 ft 439 kts 316°
2026-04-26 17:25 4.94709 -74.76097 23601 ft 441 kts 302°
2026-04-26 17:25 4.96153 -74.78817 23917 ft 444 kts 296°
2026-04-26 17:25 4.97498 -74.81614 24196 ft 447 kts 295°
2026-04-26 17:25 4.98849 -74.84431 24477 ft 450 kts 296°
2026-04-26 17:26 5.00229 -74.87255 24763 ft 452 kts 296°
2026-04-26 17:26 5.01624 -74.90094 25034 ft 455 kts 296°
2026-04-26 17:26 5.03011 -74.92947 25322 ft 457 kts 296°
2026-04-26 17:26 5.04403 -74.95823 25608 ft 459 kts 296°
2026-04-26 17:27 5.05811 -74.98716 25890 ft 462 kts 296°
2026-04-26 17:27 5.07229 -75.01624 26182 ft 464 kts 296°
2026-04-26 17:27 5.08646 -75.04535 26465 ft 467 kts 296°
2026-04-26 17:27 5.10071 -75.07467 26780 ft 469 kts 296°
2026-04-26 17:28 5.11504 -75.10416 27077 ft 471 kts 295°
2026-04-26 17:28 5.12945 -75.13381 27380 ft 474 kts 295°
2026-04-26 17:28 5.14379 -75.16327 27697 ft 476 kts 296°
2026-04-26 17:28 5.16041 -75.19205 28025 ft 478 kts 307°
2026-04-26 17:29 5.18189 -75.21759 28358 ft 480 kts 311°
2026-04-26 17:29 5.19666 -75.23418 28549 ft 482 kts 311°
2026-04-26 17:29 5.22677 -75.26780 28940 ft 486 kts 311°
2026-04-26 17:29 5.24918 -75.29325 29227 ft 488 kts 311°
2026-04-26 17:30 5.27169 -75.31888 29505 ft 491 kts 311°
2026-04-26 17:30 5.29442 -75.34456 29781 ft 493 kts 311°
2026-04-26 17:30 5.31731 -75.37034 30042 ft 496 kts 311°
2026-04-26 17:30 5.34026 -75.39629 30268 ft 498 kts 311°
2026-04-26 17:31 5.36328 -75.42241 30479 ft 501 kts 311°
2026-04-26 17:31 5.38637 -75.44856 30696 ft 503 kts 311°
2026-04-26 17:31 5.40963 -75.47484 30934 ft 505 kts 311°
2026-04-26 17:31 5.43297 -75.50124 31157 ft 506 kts 311°
2026-04-26 17:32 5.45637 -75.52775 31388 ft 508 kts 311°
2026-04-26 17:32 5.47985 -75.55435 31638 ft 510 kts 311°
2026-04-26 17:32 5.50314 -75.58070 31876 ft 512 kts 311°
2026-04-26 17:32 5.59016 -75.67926 32727 ft 517 kts 311°
2026-04-26 17:33 5.68614 -75.78804 33621 ft 523 kts 311°
2026-04-26 17:33 5.78017 -75.89956 34732 ft 520 kts 309°
2026-04-26 17:33 5.87247 -76.01027 35961 ft 513 kts 309°
2026-04-26 17:34 6.05291 -76.22720 38318 ft 499 kts 308°
2026-04-26 17:34 6.14162 -76.33398 39255 ft 494 kts 308°
2026-04-26 17:34 6.22926 -76.43954 39948 ft 492 kts 308°
2026-04-26 17:35 6.40268 -76.64859 39923 ft 483 kts 308°
2026-04-26 17:35 6.57493 -76.85647 39893 ft 483 kts 308°
2026-04-26 17:36 6.74736 -77.06482 39895 ft 484 kts 308°
2026-04-26 17:36 6.91855 -77.27192 39910 ft 485 kts 308°
2026-04-26 17:37 7.09099 -77.48080 39915 ft 485 kts 308°
2026-04-26 17:37 7.26317 -77.68963 39925 ft 483 kts 308°
2026-04-26 17:38 7.52067 -78.00344 39925 ft 481 kts 308°
2026-04-26 17:38 7.69082 -78.21180 39924 ft 481 kts 308°
2026-04-26 17:39 7.86115 -78.42066 39922 ft 483 kts 308°
2026-04-26 17:39 8.03046 -78.62855 39919 ft 482 kts 308°
2026-04-26 17:40 8.14430 -78.76850 39915 ft 481 kts 308°
2026-04-26 17:40 8.37088 -79.04747 39923 ft 482 kts 307°
2026-04-26 17:41 8.54031 -79.25644 39933 ft 480 kts 307°
2026-04-26 17:41 8.70849 -79.46419 39942 ft 480 kts 307°
2026-04-26 17:42 8.86330 -79.68216 39948 ft 478 kts 301°
2026-04-26 17:42 9.00576 -79.90877 39933 ft 477 kts 300°
2026-04-26 17:43 9.14805 -80.13532 39922 ft 477 kts 300°
2026-04-26 17:43 9.29082 -80.36309 39919 ft 479 kts 300°
2026-04-26 17:44 9.40981 -80.55322 39912 ft 482 kts 300°
2026-04-26 17:44 9.55258 -80.78178 39905 ft 479 kts 300°
2026-04-26 17:45 9.69528 -81.00966 39912 ft 477 kts 300°
2026-04-26 17:45 9.83760 -81.23695 39917 ft 477 kts 299°
2026-04-26 17:46 9.97967 -81.46429 39916 ft 477 kts 300°
2026-04-26 17:46 10.12182 -81.69222 39917 ft 478 kts 300°
2026-04-26 17:47 10.23983 -81.88178 39919 ft 478 kts 300°
2026-04-26 17:47 10.40561 -82.14861 39919 ft 478 kts 300°
2026-04-26 17:48 10.54742 -82.37737 39918 ft 478 kts 300°
2026-04-26 17:48 10.68806 -82.60470 39919 ft 478 kts 299°
2026-04-26 17:49 10.78472 -82.69822 39927 ft 485 kts 318°
2026-04-26 17:49 10.88958 -82.78443 39927 ft 485 kts 318°
2026-04-26 17:49 11.10010 -82.95677 39928 ft 485 kts 318°
2026-04-26 17:50 11.31080 -83.12937 39922 ft 484 kts 318°
2026-04-26 17:50 11.52046 -83.30145 39928 ft 483 kts 318°
2026-04-26 17:51 11.72969 -83.47352 39911 ft 483 kts 319°
2026-04-26 17:51 11.93831 -83.64543 39924 ft 481 kts 319°
2026-04-26 17:52 12.14655 -83.81737 39922 ft 480 kts 319°
2026-04-26 17:52 12.35316 -83.98833 39888 ft 480 kts 319°
2026-04-26 17:53 12.56252 -84.15764 39877 ft 480 kts 320°
2026-04-26 17:54 12.87821 -84.40759 39857 ft 476 kts 321°
2026-04-26 17:54 13.08753 -84.57375 39848 ft 475 kts 321°
2026-04-26 17:55 13.29555 -84.73923 39851 ft 472 kts 321°
2026-04-26 17:55 13.50331 -84.90486 39878 ft 471 kts 321°
2026-04-26 17:56 13.71041 -85.07035 39896 ft 470 kts 321°
2026-04-26 17:57 14.11797 -85.40428 39917 ft 468 kts 318°
2026-04-26 17:57 14.31396 -85.57904 39933 ft 465 kts 318°
2026-04-26 17:58 14.70412 -85.92910 39972 ft 465 kts 318°
2026-04-26 17:59 14.99656 -86.19264 39963 ft 463 kts 317°
2026-04-26 17:59 15.19034 -86.36782 39939 ft 462 kts 317°
2026-04-26 18:00 15.38250 -86.54198 39930 ft 460 kts 317°
2026-04-26 18:00 15.57505 -86.71693 39890 ft 458 kts 317°
2026-04-26 18:01 15.76930 -86.89095 39896 ft 463 kts 322°
2026-04-26 18:01 15.97415 -87.05320 39892 ft 461 kts 321°
2026-04-26 18:02 16.14369 -87.18836 39888 ft 462 kts 321°
2026-04-26 18:02 16.38098 -87.37811 39894 ft 461 kts 321°
2026-04-26 18:03 16.58460 -87.54139 39890 ft 461 kts 321°
2026-04-26 18:03 16.78787 -87.70483 39901 ft 461 kts 321°
2026-04-26 18:04 16.98918 -87.86716 39898 ft 460 kts 321°
2026-04-26 18:05 17.29442 -88.11465 39888 ft 460 kts 321°
2026-04-26 18:05 17.49677 -88.27909 39921 ft 461 kts 321°
2026-04-26 18:06 17.69026 -88.45542 39901 ft 461 kts 317°
2026-04-26 18:06 17.82276 -88.58020 39892 ft 460 kts 317°
2026-04-26 18:07 17.87017 -88.62481 39891 ft 460 kts 317°
2026-04-26 18:07 17.91777 -88.66975 39887 ft 460 kts 317°
2026-04-26 18:08 17.96540 -88.71469 39894 ft 461 kts 317°
2026-04-26 18:08 18.01314 -88.75982 39893 ft 461 kts 316°
2026-04-26 18:09 18.05574 -88.81036 39899 ft 462 kts 310°
2026-04-26 18:09 18.09701 -88.86204 39893 ft 461 kts 310°
2026-04-26 18:10 18.13799 -88.91339 39896 ft 461 kts 310°
2026-04-26 18:10 18.17920 -88.96508 39890 ft 461 kts 310°
2026-04-26 18:11 18.22038 -89.01676 39897 ft 461 kts 310°
2026-04-26 18:11 18.26153 -89.06846 39898 ft 461 kts 310°
2026-04-26 18:12 18.30265 -89.12015 39893 ft 460 kts 310°
2026-04-26 18:12 18.34379 -89.17191 39894 ft 461 kts 310°
2026-04-26 18:13 18.38490 -89.22369 39889 ft 462 kts 310°
2026-04-26 18:13 18.42600 -89.27548 39896 ft 462 kts 310°
2026-04-26 18:14 18.46722 -89.32747 39894 ft 461 kts 310°
2026-04-26 18:14 18.50828 -89.37931 39892 ft 460 kts 310°
2026-04-26 18:15 18.54928 -89.43110 39886 ft 460 kts 310°
2026-04-26 18:15 18.59030 -89.48298 39894 ft 461 kts 309°
2026-04-26 18:16 18.63142 -89.53502 39893 ft 462 kts 309°
2026-04-26 18:16 18.69276 -89.61272 39887 ft 461 kts 309°
2026-04-26 18:17 18.73376 -89.66471 39882 ft 461 kts 309°
2026-04-26 18:17 18.77474 -89.71673 39872 ft 461 kts 309°
2026-04-26 18:18 18.81577 -89.76884 39863 ft 461 kts 309°
2026-04-26 18:18 18.85675 -89.82095 39863 ft 461 kts 309°
2026-04-26 18:19 18.89767 -89.87301 39862 ft 460 kts 309°
2026-04-26 18:19 18.93854 -89.92505 39861 ft 460 kts 309°
2026-04-26 18:20 18.97942 -89.97716 39860 ft 461 kts 309°
2026-04-26 18:20 19.00654 -90.01174 39851 ft 461 kts 309°
2026-04-26 18:21 19.06128 -90.08163 39846 ft 461 kts 309°
2026-04-26 18:21 19.10187 -90.13349 39847 ft 461 kts 309°
2026-04-26 18:22 19.14268 -90.18568 39851 ft 460 kts 309°
2026-04-26 18:22 19.18348 -90.23791 39850 ft 460 kts 309°
2026-04-26 18:23 19.22424 -90.29012 39850 ft 459 kts 309°
2026-04-26 18:23 19.25803 -90.33344 39849 ft 460 kts 309°
2026-04-26 18:24 19.30558 -90.39472 39842 ft 461 kts 309°
2026-04-26 18:24 19.34635 -90.44714 39843 ft 461 kts 309°
2026-04-26 18:25 19.38711 -90.49950 39837 ft 460 kts 309°
2026-04-26 18:25 19.42775 -90.55183 39839 ft 459 kts 309°
2026-04-26 18:26 19.46837 -90.60413 39850 ft 460 kts 309°
2026-04-26 18:26 19.50904 -90.65657 39847 ft 460 kts 309°
2026-04-26 18:27 19.54945 -90.70869 39850 ft 461 kts 309°
2026-04-26 18:27 19.59016 -90.76126 39850 ft 461 kts 309°
2026-04-26 18:28 19.63087 -90.81388 39851 ft 461 kts 309°
2026-04-26 18:28 19.67146 -90.86639 39849 ft 459 kts 309°
2026-04-26 18:29 19.71114 -90.91776 39850 ft 460 kts 309°
2026-04-26 18:29 19.75173 -90.97036 39852 ft 461 kts 309°
2026-04-26 18:30 19.78557 -91.01425 39853 ft 461 kts 309°
2026-04-26 18:30 19.82618 -91.06695 39858 ft 460 kts 309°
2026-04-26 18:31 19.86671 -91.11960 39860 ft 459 kts 309°
2026-04-26 18:31 19.90714 -91.17215 39852 ft 459 kts 309°
2026-04-26 18:32 19.94752 -91.22470 39852 ft 459 kts 309°
2026-04-26 18:32 19.98794 -91.27733 39854 ft 460 kts 309°
2026-04-26 18:33 20.02815 -91.32975 39855 ft 460 kts 309°
2026-04-26 18:33 20.06859 -91.38254 39859 ft 459 kts 309°
2026-04-26 18:34 20.10891 -91.43521 39861 ft 458 kts 309°
2026-04-26 18:34 20.14919 -91.48787 39870 ft 459 kts 309°
2026-04-26 18:35 20.18954 -91.54069 39866 ft 459 kts 309°
2026-04-26 18:35 20.22944 -91.59294 39867 ft 457 kts 309°
2026-04-26 18:36 20.26957 -91.64555 39868 ft 458 kts 309°
2026-04-26 18:36 20.30966 -91.69816 39866 ft 458 kts 309°
2026-04-26 18:37 20.34976 -91.75084 39868 ft 458 kts 309°
2026-04-26 18:37 20.38989 -91.80359 39868 ft 457 kts 309°
2026-04-26 18:38 20.42994 -91.85630 39865 ft 457 kts 309°
2026-04-26 18:38 20.46997 -91.90902 39869 ft 457 kts 309°
2026-04-26 18:39 20.50973 -91.96144 39864 ft 452 kts 310°
2026-04-26 18:39 20.54943 -92.01381 39861 ft 455 kts 310°
2026-04-26 18:40 20.58922 -92.06637 39865 ft 455 kts 310°
2026-04-26 18:40 20.62892 -92.11884 39864 ft 455 kts 310°
2026-04-26 18:41 20.66869 -92.17147 39862 ft 455 kts 310°
2026-04-26 18:41 20.70841 -92.22407 39861 ft 455 kts 310°
2026-04-26 18:42 20.74785 -92.27635 39864 ft 455 kts 309°
2026-04-26 18:42 20.78739 -92.32883 39858 ft 450 kts 310°
2026-04-26 18:43 20.82671 -92.38103 39859 ft 450 kts 310°
2026-04-26 18:43 20.86594 -92.43318 39860 ft 451 kts 310°
2026-04-26 18:44 20.90526 -92.48550 39862 ft 451 kts 310°
2026-04-26 18:44 20.94459 -92.53788 39861 ft 452 kts 310°
2026-04-26 18:45 20.98398 -92.59038 39862 ft 452 kts 310°
2026-04-26 18:45 21.02303 -92.64248 39859 ft 451 kts 309°
2026-04-26 18:46 21.06218 -92.69477 39850 ft 447 kts 310°
2026-04-26 18:46 21.10102 -92.74668 39848 ft 448 kts 310°
2026-04-26 18:47 21.14002 -92.79886 39853 ft 447 kts 309°
2026-04-26 18:47 21.17885 -92.85086 39855 ft 446 kts 309°
2026-04-26 18:48 21.21760 -92.90281 39852 ft 446 kts 309°
2026-04-26 18:48 21.25641 -92.95488 39852 ft 446 kts 309°
2026-04-26 18:49 21.29513 -93.00687 39851 ft 446 kts 309°
2026-04-26 18:49 21.33379 -93.05884 39841 ft 446 kts 309°
2026-04-26 18:50 21.37215 -93.11047 39838 ft 444 kts 309°
2026-04-26 18:50 21.41067 -93.16234 39838 ft 445 kts 309°
2026-04-26 18:51 21.44918 -93.21428 39841 ft 445 kts 309°
2026-04-26 18:51 21.48777 -93.26636 39839 ft 445 kts 309°
2026-04-26 18:52 21.51979 -93.30962 39841 ft 446 kts 309°
2026-04-26 18:52 21.56489 -93.37060 39837 ft 446 kts 309°
2026-04-26 18:53 21.60349 -93.42285 39836 ft 446 kts 309°
2026-04-26 18:53 21.64200 -93.47503 39836 ft 445 kts 309°
2026-04-26 18:54 21.68042 -93.52714 39832 ft 444 kts 309°
2026-04-26 18:54 21.71879 -93.57921 39831 ft 445 kts 309°
2026-04-26 18:55 21.75722 -93.63144 39845 ft 446 kts 309°
2026-04-26 18:55 21.79542 -93.68340 39843 ft 445 kts 309°
2026-04-26 18:56 21.83291 -93.73643 39852 ft 445 kts 304°
2026-04-26 18:56 21.86682 -93.79226 39845 ft 445 kts 304°
2026-04-26 18:57 21.89506 -93.83858 39838 ft 445 kts 304°
2026-04-26 18:57 21.93455 -93.90368 39836 ft 444 kts 304°
2026-04-26 18:58 21.96840 -93.95944 39835 ft 445 kts 304°
2026-04-26 18:58 22.00229 -94.01537 39829 ft 445 kts 304°
2026-04-26 18:59 22.03617 -94.07131 39829 ft 446 kts 304°
2026-04-26 18:59 22.07002 -94.12728 39831 ft 446 kts 304°
2026-04-26 19:00 22.10386 -94.18328 39841 ft 445 kts 304°
2026-04-26 19:00 22.13731 -94.23869 39836 ft 443 kts 304°
2026-04-26 19:01 22.17088 -94.29436 39832 ft 443 kts 304°
2026-04-26 19:01 22.20452 -94.35021 39830 ft 444 kts 304°
2026-04-26 19:02 22.23816 -94.40611 39834 ft 444 kts 304°
2026-04-26 19:02 22.26631 -94.45293 39832 ft 444 kts 304°
2026-04-26 19:03 22.30448 -94.51650 39833 ft 444 kts 304°
2026-04-26 19:03 22.33812 -94.57257 39837 ft 444 kts 304°
2026-04-26 19:04 22.37161 -94.62847 39820 ft 443 kts 303°
2026-04-26 19:04 22.40485 -94.68399 39834 ft 441 kts 303°
2026-04-26 19:05 22.45480 -94.76754 39825 ft 441 kts 303°
2026-04-26 19:06 22.48812 -94.82335 39827 ft 442 kts 303°
2026-04-26 19:06 22.52125 -94.87891 39827 ft 442 kts 303°
2026-04-26 19:07 22.55476 -94.93515 39826 ft 443 kts 303°
2026-04-26 19:07 22.61223 -95.03176 39820 ft 440 kts 303°
2026-04-26 19:08 22.74437 -95.25461 39809 ft 438 kts 303°
2026-04-26 19:08 22.87575 -95.47712 39807 ft 438 kts 302°
2026-04-26 19:09 23.00664 -95.69975 39815 ft 437 kts 302°
2026-04-26 19:09 23.13365 -95.91670 39813 ft 437 kts 302°
2026-04-26 19:10 23.26382 -96.13997 39806 ft 436 kts 302°
2026-04-26 19:10 23.38943 -96.35636 39814 ft 436 kts 301°
2026-04-26 19:11 23.51895 -96.58045 39809 ft 437 kts 301°
2026-04-26 19:11 23.64807 -96.80485 39809 ft 437 kts 301°
2026-04-26 19:12 23.77665 -97.02935 39807 ft 436 kts 301°
2026-04-26 19:12 23.90513 -97.25472 39810 ft 436 kts 300°
2026-04-26 19:13 24.02822 -97.47160 39810 ft 436 kts 300°
2026-04-26 19:14 24.28250 -97.92267 39800 ft 437 kts 300°
2026-04-26 19:14 24.40933 -98.14923 39787 ft 436 kts 300°
2026-04-26 19:15 24.53593 -98.37642 39786 ft 436 kts 299°
2026-04-26 19:15 24.65773 -98.59603 39788 ft 435 kts 299°
2026-04-26 19:16 24.78338 -98.82363 39791 ft 435 kts 298°
2026-04-26 19:16 24.90857 -99.05149 39789 ft 435 kts 298°
2026-04-26 19:16 24.98176 -99.15786 39791 ft 441 kts 310°
2026-04-26 19:17 25.06528 -99.25648 39789 ft 440 kts 309°
2026-04-26 19:17 25.23073 -99.45298 39784 ft 440 kts 309°
2026-04-26 19:18 25.39674 -99.65132 39793 ft 438 kts 308°
2026-04-26 19:18 25.56227 -99.84994 39807 ft 438 kts 308°
2026-04-26 19:19 25.72698 -100.04847 39852 ft 437 kts 308°
2026-04-26 19:19 25.79845 -100.15547 39854 ft 430 kts 294°
2026-04-26 19:19 25.85492 -100.27275 39852 ft 429 kts 295°
2026-04-26 19:20 25.96748 -100.50636 39796 ft 429 kts 295°
2026-04-26 19:20 26.07910 -100.73870 39780 ft 428 kts 295°
2026-04-26 19:21 26.16829 -100.92539 39774 ft 429 kts 295°
2026-04-26 19:21 26.29776 -101.19811 39788 ft 428 kts 295°
2026-04-26 19:22 26.40903 -101.43356 39792 ft 429 kts 294°
2026-04-26 19:22 26.50138 -101.62996 39798 ft 430 kts 294°
2026-04-26 19:23 26.61188 -101.86614 39799 ft 428 kts 294°
2026-04-26 19:23 26.72175 -102.10294 39796 ft 423 kts 293°
2026-04-26 19:24 26.83055 -102.33909 39813 ft 426 kts 293°
2026-04-26 19:24 26.99321 -102.69453 39825 ft 428 kts 293°
2026-04-26 19:25 27.08343 -102.89293 39835 ft 428 kts 293°
2026-04-26 19:25 27.20896 -103.17061 39823 ft 431 kts 292°
2026-04-26 19:26 27.31704 -103.41116 39818 ft 432 kts 292°
2026-04-26 19:26 27.42211 -103.64631 39825 ft 432 kts 292°
2026-04-26 19:27 27.52968 -103.88846 39836 ft 432 kts 292°
2026-04-26 19:27 27.63695 -104.13137 39846 ft 432 kts 292°
2026-04-26 19:28 27.75256 -104.36786 39855 ft 434 kts 298°
2026-04-26 19:28 27.89023 -104.59167 39854 ft 434 kts 299°
2026-04-26 19:29 28.02709 -104.81508 39840 ft 431 kts 298°
2026-04-26 19:29 28.16305 -105.03822 39837 ft 428 kts 298°
2026-04-26 19:30 28.29780 -105.26050 39812 ft 428 kts 298°
2026-04-26 19:30 28.40902 -105.44484 39806 ft 422 kts 297°
2026-04-26 19:31 28.56290 -105.70131 39782 ft 423 kts 297°
2026-04-26 19:31 28.69491 -105.92260 39765 ft 423 kts 297°
2026-04-26 19:32 28.75166 -106.03822 40081 ft 421 kts 291°
2026-04-26 19:32 28.80446 -106.15728 39949 ft 420 kts 291°
2026-04-26 19:32 28.85705 -106.27618 39780 ft 418 kts 290°
2026-04-26 19:32 28.90924 -106.39460 39804 ft 417 kts 290°
2026-04-26 19:33 29.01340 -106.63201 39843 ft 418 kts 290°
2026-04-26 19:33 29.11707 -106.86976 39849 ft 417 kts 289°
2026-04-26 19:34 29.22020 -107.10773 39844 ft 422 kts 290°
2026-04-26 19:34 29.32282 -107.34592 39864 ft 416 kts 289°
2026-04-26 19:35 29.42572 -107.58627 39873 ft 422 kts 290°
2026-04-26 19:35 29.52910 -107.82923 39891 ft 424 kts 289°
2026-04-26 19:36 29.61307 -108.02771 39922 ft 424 kts 289°
2026-04-26 19:36 29.73158 -108.30960 39924 ft 422 kts 289°
2026-04-26 19:37 29.83298 -108.55251 39909 ft 419 kts 289°
2026-04-26 19:37 29.93274 -108.79303 39907 ft 415 kts 288°
2026-04-26 19:38 30.02934 -109.02747 39868 ft 416 kts 288°
2026-04-26 19:38 30.12738 -109.26680 39858 ft 413 kts 287°
2026-04-26 19:39 30.22539 -109.50763 39859 ft 413 kts 287°
2026-04-26 19:39 30.32029 -109.74239 39870 ft 411 kts 287°
2026-04-26 19:40 30.41657 -109.98205 39865 ft 410 kts 287°
2026-04-26 19:40 30.51200 -110.22123 39867 ft 408 kts 286°
2026-04-26 19:41 30.60685 -110.46043 39882 ft 409 kts 286°
2026-04-26 19:41 30.68491 -110.65841 39879 ft 403 kts 286°
2026-04-26 19:42 30.82380 -110.91334 39893 ft 446 kts 314°
2026-04-26 19:42 30.94494 -110.96636 39903 ft 497 kts 343°
2026-04-26 19:42 31.08708 -110.96039 39872 ft 508 kts 347°
2026-04-26 19:43 31.37041 -110.94804 40021 ft 509 kts 349°
2026-04-26 19:43 31.65365 -110.93522 39861 ft 509 kts 349°
2026-04-26 19:44 31.93697 -110.92219 39944 ft 510 kts 349°
2026-04-26 19:44 32.06369 -110.94987 40008 ft 453 kts 318°
2026-04-26 19:44 32.11535 -110.98928 39997 ft 433 kts 307°
2026-04-26 19:45 32.15606 -111.03952 40015 ft 416 kts 295°
2026-04-26 19:45 32.18605 -111.09677 39972 ft 407 kts 290°
2026-04-26 19:45 32.24335 -111.21160 39967 ft 408 kts 290°
2026-04-26 19:46 32.30079 -111.32734 39938 ft 408 kts 290°
2026-04-26 19:46 32.35813 -111.44324 39940 ft 409 kts 290°
2026-04-26 19:47 32.40403 -111.53628 39936 ft 408 kts 290°
2026-04-26 19:47 32.47084 -111.67210 39890 ft 408 kts 290°
2026-04-26 19:48 32.52784 -111.78835 39918 ft 408 kts 290°
2026-04-26 19:48 32.58490 -111.90509 39905 ft 409 kts 290°
2026-04-26 19:49 32.64189 -112.02209 39902 ft 408 kts 290°
2026-04-26 19:49 32.69862 -112.13893 39902 ft 409 kts 290°
2026-04-26 19:50 32.75542 -112.25625 39908 ft 410 kts 290°
2026-04-26 19:50 32.81211 -112.37376 39909 ft 409 kts 290°
2026-04-26 19:51 32.86832 -112.49062 39918 ft 409 kts 290°
2026-04-26 19:51 32.92482 -112.60845 39954 ft 409 kts 290°
2026-04-26 19:52 33.02448 -112.76406 39953 ft 426 kts 301°
2026-04-26 19:52 33.18398 -112.97552 39890 ft 429 kts 301°
2026-04-26 19:53 33.34448 -113.18930 39895 ft 434 kts 301°
2026-04-26 19:53 33.50067 -113.39872 39891 ft 437 kts 301°
2026-04-26 19:54 33.66081 -113.61458 39968 ft 432 kts 301°
2026-04-26 19:54 33.81136 -113.83605 39903 ft 409 kts 285°
2026-04-26 19:55 33.89972 -114.09127 39857 ft 415 kts 285°
2026-04-26 19:55 33.98832 -114.34857 39895 ft 416 kts 285°
2026-04-26 19:56 34.07646 -114.60682 39855 ft 418 kts 285°
2026-04-26 19:56 34.10608 -114.73862 39868 ft 406 kts 270°
2026-04-26 19:56 34.11467 -114.87704 39911 ft 406 kts 270°
2026-04-26 19:57 34.13165 -115.14857 39878 ft 408 kts 270°
2026-04-26 19:57 34.14821 -115.42181 39880 ft 409 kts 270°
2026-04-26 19:58 34.16310 -115.68753 39898 ft 404 kts 263°
2026-04-26 19:58 34.15764 -115.75380 39896 ft 404 kts 261°
2026-04-26 19:59 34.15120 -115.82153 39903 ft 406 kts 261°
2026-04-26 19:59 34.14462 -115.88929 39896 ft 406 kts 261°
2026-04-26 20:00 34.14136 -115.92297 39743 ft 401 kts 261°
2026-04-26 20:00 34.13813 -115.95634 39365 ft 398 kts 261°
2026-04-26 20:00 34.13489 -115.98942 38910 ft 396 kts 261°
2026-04-26 20:00 34.13165 -116.02242 38426 ft 395 kts 261°
2026-04-26 20:01 34.12843 -116.05525 37801 ft 394 kts 261°
2026-04-26 20:01 34.12523 -116.08775 37164 ft 395 kts 261°
2026-04-26 20:01 34.12198 -116.12071 36473 ft 396 kts 261°
2026-04-26 20:01 34.11870 -116.15374 35765 ft 397 kts 261°
2026-04-26 20:02 34.11542 -116.18682 35043 ft 399 kts 261°
2026-04-26 20:02 34.11210 -116.22017 34324 ft 401 kts 260°
2026-04-26 20:02 34.10877 -116.25356 33457 ft 393 kts 260°
2026-04-26 20:02 34.10659 -116.27537 31972 ft 407 kts 261°
2026-04-26 20:03 34.10209 -116.32013 31928 ft 396 kts 261°
2026-04-26 20:03 34.09875 -116.35344 31935 ft 404 kts 261°
2026-04-26 20:03 34.09190 -116.42099 31865 ft 403 kts 260°
2026-04-26 20:04 34.08806 -116.45433 31448 ft 399 kts 259°
2026-04-26 20:04 34.08427 -116.48692 30879 ft 397 kts 260°
2026-04-26 20:04 34.08069 -116.51985 30372 ft 394 kts 261°
2026-04-26 20:04 34.07722 -116.55223 30130 ft 384 kts 261°
2026-04-26 20:05 34.07370 -116.58382 29721 ft 377 kts 261°
2026-04-26 20:05 34.07084 -116.61484 29452 ft 365 kts 262°
2026-04-26 20:05 34.06807 -116.64434 29229 ft 343 kts 262°
2026-04-26 20:05 34.06540 -116.67207 28711 ft 327 kts 262°
2026-04-26 20:06 34.06288 -116.69915 28087 ft 323 kts 262°
2026-04-26 20:06 34.06041 -116.72595 27453 ft 319 kts 262°
2026-04-26 20:06 34.05793 -116.75248 26746 ft 317 kts 262°
2026-04-26 20:06 34.05555 -116.77790 26156 ft 314 kts 262°
2026-04-26 20:07 34.05310 -116.80402 25550 ft 312 kts 263°
2026-04-26 20:07 34.05066 -116.82999 24939 ft 311 kts 263°
2026-04-26 20:07 34.04822 -116.85583 24343 ft 309 kts 263°
2026-04-26 20:07 34.04580 -116.88146 23832 ft 306 kts 263°
2026-04-26 20:08 34.04265 -116.90672 23228 ft 304 kts 261°
2026-04-26 20:08 34.03944 -116.93177 22617 ft 301 kts 262°
2026-04-26 20:08 34.03633 -116.95673 21984 ft 299 kts 262°
2026-04-26 20:08 34.03314 -116.98137 21394 ft 296 kts 261°
2026-04-26 20:09 34.02999 -117.00542 20826 ft 294 kts 261°
2026-04-26 20:09 34.02683 -117.02965 20251 ft 291 kts 262°
2026-04-26 20:09 34.02384 -117.05370 19687 ft 289 kts 262°
2026-04-26 20:09 34.02114 -117.07758 19113 ft 287 kts 263°
2026-04-26 20:10 34.01840 -117.10129 18552 ft 284 kts 262°
2026-04-26 20:10 34.01558 -117.12480 17958 ft 283 kts 262°
2026-04-26 20:10 34.01378 -117.13977 17795 ft 278 kts 263°
2026-04-26 20:10 34.01099 -117.16325 17318 ft 284 kts 263°
2026-04-26 20:11 34.00822 -117.18647 17086 ft 277 kts 263°
2026-04-26 20:11 34.00544 -117.20991 16998 ft 285 kts 263°
2026-04-26 20:11 34.00250 -117.23459 16774 ft 315 kts 263°
2026-04-26 20:12 33.99594 -117.28915 16174 ft 333 kts 263°
2026-04-26 20:12 33.99262 -117.31665 15858 ft 332 kts 263°
2026-04-26 20:12 33.98939 -117.34420 15552 ft 330 kts 263°
2026-04-26 20:12 33.98622 -117.37155 15249 ft 329 kts 264°
2026-04-26 20:13 33.98303 -117.39873 14952 ft 327 kts 264°
2026-04-26 20:13 33.97981 -117.42587 14646 ft 326 kts 264°
2026-04-26 20:13 33.97663 -117.45281 14343 ft 324 kts 264°
2026-04-26 20:13 33.97376 -117.47975 14054 ft 323 kts 269°
2026-04-26 20:14 33.97560 -117.50645 13884 ft 320 kts 281°
2026-04-26 20:14 33.98020 -117.53282 13412 ft 321 kts 283°
2026-04-26 20:14 33.98494 -117.55901 12976 ft 317 kts 282°
2026-04-26 20:14 33.98957 -117.58481 12573 ft 312 kts 282°
2026-04-26 20:15 33.99401 -117.61007 12176 ft 305 kts 282°
2026-04-26 20:15 33.99838 -117.63487 11789 ft 301 kts 282°
2026-04-26 20:15 34.00273 -117.65950 11404 ft 299 kts 282°
2026-04-26 20:15 34.00605 -117.68412 11026 ft 297 kts 271°
2026-04-26 20:16 34.00439 -117.70892 10646 ft 297 kts 265°
2026-04-26 20:16 34.00199 -117.73359 10271 ft 295 kts 264°
2026-04-26 20:16 33.99956 -117.75807 9866 ft 293 kts 264°
2026-04-26 20:16 33.99721 -117.78203 9481 ft 291 kts 264°
2026-04-26 20:17 33.99487 -117.80598 9114 ft 284 kts 264°
2026-04-26 20:17 33.99258 -117.82929 8743 ft 276 kts 264°
2026-04-26 20:17 33.99035 -117.85227 8387 ft 269 kts 264°
2026-04-26 20:17 33.98891 -117.86726 8156 ft 266 kts 263°
2026-04-26 20:18 33.98605 -117.89656 7703 ft 266 kts 264°
2026-04-26 20:18 33.98390 -117.91860 7363 ft 263 kts 263°
2026-04-26 20:18 33.98172 -117.94060 7037 ft 265 kts 264°
2026-04-26 20:18 33.97954 -117.96256 6690 ft 261 kts 263°
2026-04-26 20:19 33.97739 -117.98434 6357 ft 262 kts 264°
2026-04-26 20:19 33.97522 -118.00652 6001 ft 269 kts 263°
2026-04-26 20:19 33.97303 -118.02858 5646 ft 266 kts 263°
2026-04-26 20:19 33.97087 -118.05022 5312 ft 255 kts 263°
2026-04-26 20:20 33.96880 -118.07098 4987 ft 244 kts 263°
2026-04-26 20:20 33.96675 -118.09168 4667 ft 253 kts 264°
2026-04-26 20:20 33.96473 -118.11248 4338 ft 246 kts 264°
2026-04-26 20:20 33.96279 -118.13275 4034 ft 244 kts 263°
2026-04-26 20:21 33.96072 -118.15338 3718 ft 245 kts 263°
2026-04-26 20:21 33.95869 -118.17354 3420 ft 239 kts 262°
2026-04-26 20:21 33.95671 -118.19299 3104 ft 231 kts 262°
2026-04-26 20:21 33.95487 -118.21115 2954 ft 216 kts 262°
2026-04-26 20:22 33.95300 -118.22968 2682 ft 220 kts 262°
2026-04-26 20:22 33.95118 -118.24761 2393 ft 212 kts 261°
2026-04-26 20:22 33.94948 -118.26455 2107 ft 190 kts 261°
2026-04-26 20:22 33.94792 -118.27934 1855 ft 166 kts 261°
2026-04-26 20:23 33.94666 -118.29203 1648 ft 143 kts 260°
2026-04-26 20:23 33.94542 -118.30352 1467 ft 133 kts 259°
2026-04-26 20:23 33.94429 -118.31437 1298 ft 133 kts 261°
2026-04-26 20:23 33.94314 -118.32582 1131 ft 142 kts 261°
2026-04-26 20:24 33.94206 -118.33780 971 ft 147 kts 259°
2026-04-26 20:24 33.94086 -118.34964 801 ft 139 kts 262°
2026-04-26 20:24 33.93965 -118.36079 595 ft 129 kts 264°
2026-04-26 20:24 33.93860 -118.37135 365 ft 129 kts 265°
2026-04-26 20:25 33.93748 -118.38230 199 ft 133 kts 259°
2026-04-26 20:25 33.93675 -118.38942 137 ft 122 kts 259°
2026-04-26 20:25 33.93576 -118.39767 125 ft 42 kts 266°
2026-04-26 20:25 33.93543 -118.40201 132 ft 46 kts 263°
2026-04-26 20:26 33.93547 -118.40471 129 ft 32 kts 283°
2026-04-26 20:26 33.93593 -118.40668 131 ft 20 kts 281°
2026-04-26 20:26 33.93595 -118.40749 124 ft 0 kts 265°
2026-04-26 20:26 33.93595 -118.40753 124 ft 1 kts 264°
2026-04-26 20:27 33.93594 -118.40772 129 ft 8 kts 267°
2026-04-26 20:27 33.93617 -118.40864 126 ft 9 kts 309°
2026-04-26 20:27 33.93688 -118.40902 128 ft 16 kts 354°
2026-04-26 20:27 33.93791 -118.40914 129 ft 13 kts 353°
2026-04-26 20:28 33.93850 -118.40932 128 ft 4 kts 305°
2026-04-26 20:28 33.93857 -118.41024 132 ft 16 kts 261°
2026-04-26 20:28 33.93842 -118.41150 132 ft 14 kts 262°
2026-04-26 20:28 33.93841 -118.41161 132 ft 0 kts 263°
2026-04-26 20:29 33.93839 -118.41191 123 ft 11 kts 263°
2026-04-26 20:29 33.93843 -118.41246 127 ft 1 kts 305°
2026-04-26 20:29 33.93845 -118.41248 128 ft 1 kts 315°
2026-04-26 20:29 33.93849 -118.41252 128 ft 3 kts 330°
2026-04-26 20:30 33.93901 -118.41268 129 ft 14 kts 352°
2026-04-26 20:30 33.93999 -118.41283 129 ft 14 kts 352°
2026-04-26 20:30 33.94093 -118.41298 129 ft 7 kts 354°
2026-04-26 20:30 33.94098 -118.41298 130 ft 0 kts 354°
2026-04-26 20:31 33.94102 -118.41299 129 ft 4 kts 354°
2026-04-26 20:31 33.94186 -118.41310 130 ft 14 kts 353°
2026-04-26 20:32 33.94257 -118.41287 132 ft 2 kts 56°
2026-04-26 20:32 33.94256 -118.41260 123 ft 10 kts 102°
2026-04-26 20:32 33.94211 -118.41215 124 ft 9 kts 165°
2026-04-26 20:32 33.94181 -118.41198 126 ft 2 kts 127°
2026-04-26 20:33 33.94173 -118.41131 123 ft 2 kts 81°
2026-04-26 20:33 33.94174 -118.41125 125 ft 0 kts 81°
2026-04-26 20:33 33.94175 -118.41120 125 ft 1 kts 84°
2026-04-26 20:33 33.94175 -118.41111 128 ft 0 kts 85°